Greenville Downtown, SC

5:59 AM EDT on March 29, 2017 (GMT -0400)
Greenville Downtown

Weather History for KGMU - July, 2013

Change the Weather History Date:

Wednesday, July 17, 2013

  Actual Average Record
Temperature  
Mean Temperature 80 °F -  
Max Temperature 93 °F 87 °F 95 °F (2015)
Min Temperature 68 °F 68 °F 66 °F (2014)
Cooling Degree Days 16    
Growing Degree Days 30 (Base 50)    
Moisture  
Dew Point 69 °F    
Average Humidity 75    
Maximum Humidity 94    
Minimum Humidity 45    
Precipitation  
Precipitation 0.97 in - - ()
Sea Level Pressure  
Sea Level Pressure 30.22 in    
Wind  
Wind Speed 6 mph (NNE)    
Max Wind Speed 33 mph    
Max Gust Speed 43 mph    
Visibility 8 miles    
Events Rain , Thunderstorm    
Averages and records for this station are not official NWS values.
T = Trace of Precipitation, MM = Missing Value Source: NWS Daily Summary

Daily Weather History Graph

Daily Weather History Graph

Search for Another Location

Airport or City:

Trip Planner

Search our weather history database for the weather conditions in past years. The results will help you decide how hot, cold, wet, or windy it might be!

Date:

Astronomy

Jul. 17, 2013 Rise Set
Actual Time 6:28 AM EDT 8:42 PM EDT
Civil Twilight 5:59 AM EDT 9:10 PM EDT
Nautical Twilight 5:24 AM EDT 9:46 PM EDT
Astronomical Twilight 4:46 AM EDT 10:24 PM EDT
Moon 3:33 PM EDT (7/17) 1:30 AM EDT (7/17)
Length of Visible Light 15h 11m
Length of Day
14h 13m
Waxing Gibbous, 67% of the Moon is Illuminated
Jul 17
Waxing Gibbous
Jul 22
Full
Jul 29
Last Quarter
Aug 6
New
Aug 14
First Quarter

Hourly Weather History & Observations

Time (EDT) Temp. Heat Index Dew Point Humidity Pressure Visibility Wind Dir Wind Speed Gust Speed Precip Events Conditions
12:53 AM 78.1 °F - 71.1 °F 79% 30.25 in 10.0 mi WNW 4.6 mph - N/A   Clear
1:53 AM 75.9 °F - 72.0 °F 87% 30.24 in 10.0 mi West 4.6 mph - N/A   Clear
2:53 AM 75.9 °F - 71.1 °F 85% 30.23 in 10.0 mi Calm Calm - N/A   Clear
3:53 AM 75.9 °F - 71.1 °F 85% 30.23 in 10.0 mi Calm Calm - N/A   Clear
4:53 AM 75.0 °F - 71.1 °F 87% 30.23 in 10.0 mi Calm Calm - N/A   Clear
5:53 AM 75.0 °F - 71.1 °F 87% 30.24 in 10.0 mi Calm Calm - N/A   Scattered Clouds
6:53 AM 75.9 °F - 70.0 °F 82% 30.25 in 10.0 mi Calm Calm - N/A   Partly Cloudy
7:53 AM 78.1 °F - 69.1 °F 74% 30.25 in 10.0 mi North 8.1 mph - N/A   Clear
8:53 AM 82.0 °F 85.5 °F 69.1 °F 65% 30.26 in 10.0 mi North 6.9 mph - N/A   Clear
9:53 AM 86.0 °F 90.7 °F 70.0 °F 59% 30.25 in 10.0 mi North 5.8 mph - N/A   Clear
10:53 AM 87.1 °F 92.0 °F 70.0 °F 57% 30.25 in 10.0 mi NNE 8.1 mph - N/A   Clear
11:53 AM 89.1 °F 93.7 °F 69.1 °F 52% 30.25 in 10.0 mi ENE 8.1 mph - N/A   Clear
12:53 PM 89.1 °F 94.1 °F 70.0 °F 53% 30.24 in 10.0 mi NNE 4.6 mph - N/A   Clear
1:53 PM 90.0 °F 95.4 °F 70.0 °F 52% 30.22 in 10.0 mi North 6.9 mph - N/A   Clear
2:53 PM 91.0 °F 97.6 °F 71.1 °F 52% 30.19 in 10.0 mi Calm Calm - N/A   Clear
3:53 PM 93.0 °F 99.0 °F 70.0 °F 47% 30.16 in 10.0 mi NNE 9.2 mph - N/A   Partly Cloudy
4:53 PM 91.9 °F 95.9 °F 68.0 °F 45% 30.14 in 10.0 mi NE 6.9 mph - N/A   Partly Cloudy
5:53 PM 90.0 °F 95.4 °F 70.0 °F 52% 30.15 in 10.0 mi NE 5.8 mph - N/A   Scattered Clouds
6:09 PM 89.6 °F 94.7 °F 69.8 °F 52% 30.17 in 10.0 mi North 5.8 mph - N/A Thunderstorm Mostly Cloudy
6:49 PM 71.6 °F - 66.2 °F 83% 30.28 in 1.8 mi NE 27.6 mph 41.4 mph 0.08 in Rain , Thunderstorm Heavy Thunderstorms and Rain
6:53 PM 68.0 °F - 66.0 °F 93% 30.24 in 1.0 mi NE 33.4 mph 42.6 mph 0.17 in Rain , Thunderstorm Heavy Thunderstorms and Rain
6:59 PM 68.0 °F - 66.2 °F 94% 30.27 in 0.8 mi NE 19.6 mph 42.6 mph 0.11 in Rain , Thunderstorm Heavy Thunderstorms and Rain
7:06 PM 69.8 °F - 64.4 °F 83% 30.25 in 1.8 mi NE 15.0 mph 32.2 mph 0.26 in Rain , Thunderstorm Heavy Thunderstorms and Rain
7:10 PM 69.8 °F - 64.4 °F 83% 30.25 in 2.0 mi ENE 15.0 mph - 0.33 in Rain , Thunderstorm Heavy Thunderstorms and Rain
7:24 PM 69.8 °F - 66.2 °F 88% 30.22 in 7.0 mi NE 11.5 mph - 0.50 in Rain , Thunderstorm Thunderstorms and Rain
7:45 PM 69.8 °F - 66.2 °F 88% 30.24 in 10.0 mi ENE 6.9 mph - 0.60 in Rain , Thunderstorm Light Thunderstorms and Rain
7:53 PM 71.1 °F - 66.9 °F 87% 30.22 in 10.0 mi ESE 5.8 mph - 0.61 in Rain , Thunderstorm Thunderstorms and Rain
8:53 PM 70.0 °F - 68.0 °F 93% 30.20 in 7.0 mi WNW 4.6 mph - 0.12 in Rain Rain
9:53 PM 70.0 °F - 68.0 °F 93% 30.18 in 10.0 mi NW 4.6 mph - 0.07 in   Partly Cloudy
10:53 PM 71.1 °F - 69.1 °F 93% 30.20 in 10.0 mi Calm Calm - N/A   Overcast
11:53 PM 71.1 °F - 69.1 °F 93% 30.21 in 10.0 mi WSW 4.6 mph - N/A   Overcast